TimeMDT,TemperatureF,Dew PointF,Humidity,Sea Level PressureIn,VisibilityMPH,Wind Direction,Wind SpeedMPH,Gust SpeedMPH,PrecipitationIn,Events,Conditions,WindDirDegrees,DateUTC
12:15 AM,37.4,21.2,52,30.14,10.0,NNE,11.5,-,N/A,,Scattered Clouds,20,2012-10-05 06:15:00
12:35 AM,37.4,21.2,52,30.14,10.0,North,16.1,-,N/A,,Scattered Clouds,10,2012-10-05 06:35:00
12:55 AM,35.6,23.0,60,30.14,10.0,North,16.1,-,N/A,,Mostly Cloudy,10,2012-10-05 06:55:00
1:15 AM,35.6,23.0,60,30.15,10.0,North,12.7,-,N/A,,Scattered Clouds,10,2012-10-05 07:15:00
1:35 AM,33.8,21.2,60,30.15,10.0,North,12.7,-,N/A,,Clear,350,2012-10-05 07:35:00
1:55 AM,32.0,23.0,69,30.15,10.0,North,15.0,-,N/A,,Clear,350,2012-10-05 07:55:00
2:16 AM,30.2,23.0,75,30.16,10.0,North,11.5,-,N/A,,Clear,10,2012-10-05 08:16:00
2:35 AM,30.2,23.0,75,30.16,10.0,North,9.2,-,N/A,,Clear,10,2012-10-05 08:35:00
2:55 AM,30.2,24.8,80,30.16,10.0,North,9.2,-,N/A,,Clear,10,2012-10-05 08:55:00
3:15 AM,30.2,23.0,75,30.16,10.0,NE,5.8,-,N/A,,Clear,40,2012-10-05 09:15:00
3:35 AM,30.2,23.0,75,30.16,10.0,North,8.1,-,N/A,,Clear,10,2012-10-05 09:35:00
3:55 AM,28.4,23.0,80,30.17,10.0,North,9.2,-,N/A,,Clear,10,2012-10-05 09:55:00
4:15 AM,26.6,21.2,80,30.17,10.0,North,11.5,-,N/A,,Clear,360,2012-10-05 10:15:00
4:35 AM,26.6,21.2,80,30.17,10.0,North,8.1,-,N/A,,Clear,360,2012-10-05 10:35:00
4:55 AM,26.6,21.2,80,30.17,10.0,North,8.1,-,N/A,,Clear,360,2012-10-05 10:55:00
5:15 AM,23.0,19.4,86,30.17,10.0,ESE,3.5,-,N/A,,Clear,120,2012-10-05 11:15:00
5:35 AM,24.8,21.2,86,30.17,10.0,ENE,3.5,-,N/A,,Clear,60,2012-10-05 11:35:00
5:55 AM,24.8,21.2,86,30.18,10.0,NE,3.5,-,N/A,,Clear,50,2012-10-05 11:55:00
6:15 AM,23.0,17.6,80,30.18,10.0,Calm,Calm,-,N/A,,Clear,0,2012-10-05 12:15:00
6:35 AM,21.2,17.6,86,30.19,10.0,ENE,4.6,-,N/A,,Clear,60,2012-10-05 12:35:00
6:52 AM,19.4,15.8,86,30.19,10.0,Calm,Calm,-,N/A,,Clear,0,2012-10-05 12:52:00
7:52 AM,19.4,15.8,86,30.21,10.0,Calm,Calm,-,N/A,,Partly Cloudy,0,2012-10-05 13:52:00
8:51 AM,26.6,21.2,80,30.22,10.0,Calm,Calm,-,N/A,,Partly Cloudy,0,2012-10-05 14:51:00
9:51 AM,33.8,21.2,60,30.23,10.0,Calm,Calm,-,N/A,,Partly Cloudy,0,2012-10-05 15:51:00
10:53 AM,37.4,21.2,52,30.22,10.0,Calm,Calm,-,N/A,,Clear,0,2012-10-05 16:53:00
11:54 AM,42.8,15.8,34,30.20,10.0,South,3.5,-,N/A,,Clear,190,2012-10-05 17:54:00
12:53 PM,46.4,10.4,23,30.18,10.0,SSE,8.1,-,N/A,,Clear,150,2012-10-05 18:53:00
1:55 PM,48.2,-5.8,10,30.15,10.0,West,12.7,21.9,N/A,,Clear,270,2012-10-05 19:55:00
2:52 PM,48.2,-4.0,11,30.15,10.0,WNW,10.4,18.4,N/A,,Clear,290,2012-10-05 20:52:00
3:51 PM,48.2,-0.4,13,30.15,10.0,WSW,11.5,21.9,N/A,,Clear,240,2012-10-05 21:51:00
5:53 PM,44.6,-2.2,14,30.16,10.0,West,5.8,17.3,N/A,,Clear,260,2012-10-05 23:53:00
6:52 PM,39.2,-0.4,19,30.17,10.0,West,10.4,-,N/A,,Clear,270,2012-10-06 00:52:00
7:52 PM,37.4,1.4,22,30.18,10.0,Calm,Calm,-,N/A,,Clear,0,2012-10-06 01:52:00
8:51 PM,37.4,3.2,24,30.19,10.0,West,8.1,-,N/A,,Clear,260,2012-10-06 02:51:00
9:15 PM,35.6,12.2,38,30.21,10.0,NNE,12.7,18.4,N/A,,Clear,20,2012-10-06 03:15:00
9:35 PM,35.6,12.2,38,30.22,10.0,North,12.7,21.9,N/A,,Clear,10,2012-10-06 03:35:00
9:55 PM,33.8,12.2,41,30.22,10.0,North,13.8,-,N/A,,Clear,10,2012-10-06 03:55:00
10:15 PM,33.8,12.2,41,30.22,10.0,North,15.0,-,N/A,,Partly Cloudy,10,2012-10-06 04:15:00
10:55 PM,32.0,12.2,44,30.23,10.0,North,13.8,-,N/A,,Partly Cloudy,10,2012-10-06 04:55:00
11:15 PM,33.8,10.4,38,30.23,10.0,North,13.8,-,N/A,,Scattered Clouds,10,2012-10-06 05:15:00
11:35 PM,33.8,10.4,38,30.24,10.0,North,11.5,-,N/A,,Overcast,10,2012-10-06 05:35:00
11:55 PM,33.8,10.4,38,30.24,10.0,North,15.0,-,N/A,,Overcast,10,2012-10-06 05:55:00